This is the latest recevied weather packets stored in our database for station/object DL4ABR-6. If no packets are shown the sender has not sent any weather packets the latest 10 day(s).
| Time | Temp. | Humidity | Pressure | Rain* | Wind** | Luminosity | Snow |
|---|---|---|---|---|---|---|---|
| 1777766095 | 11.11° C | 84% | 1009.9 hPa | 0 mm | - | - | - |
| 1777765250 | 11.67° C | 84% | 1010.1 hPa | 0 mm | - | - | - |
| 1777764490 | 11.67° C | 82% | 1010.1 hPa | 0 mm | - | - | - |
| 1777763599 | 12.22° C | 82% | 1009.9 hPa | 0 mm | - | - | - |
| 1777762780 | 12.22° C | 80% | 1009.9 hPa | 0 mm | - | - | - |
| 1777761890 | 12.78° C | 78% | 1010.3 hPa | 0 mm | - | - | - |
| 1777761170 | 12.78° C | 79% | 1010 hPa | 0 mm | - | - | - |
| 1777760340 | 13.33° C | 77% | 1009.9 hPa | 0 mm | - | - | - |
| 1777759565 | 13.33° C | 76% | 1010 hPa | 0 mm | - | - | - |
| 1777758795 | 13.33° C | 75% | 1010.2 hPa | 0 mm | - | - | - |
| 1777757900 | 13.89° C | 74% | 1010.3 hPa | 0 mm | - | - | - |
| 1777757120 | 13.89° C | 72% | 1010.5 hPa | 0 mm | - | - | - |
| 1777756295 | 14.44° C | 72% | 1010.3 hPa | 0 mm | - | - | - |
| 1777755485 | 14.44° C | 69% | 1010.5 hPa | 0 mm | - | - | - |
| 1777754598 | 15° C | 71% | 1010.5 hPa | 0 mm | - | - | - |
| 1777753834 | 15.56° C | 71% | 1010.5 hPa | 0 mm | - | - | - |
| 1777752945 | 16.11° C | 68% | 1010.6 hPa | 0 mm | - | - | - |
| 1777752220 | 16.11° C | 67% | 1010.5 hPa | 0 mm | - | - | - |
| 1777751385 | 16.67° C | 64% | 1010.7 hPa | 0 mm | - | - | - |
| 1777750590 | 17.78° C | 63% | 1010.7 hPa | 0 mm | - | - | - |
| 1777749804 | 17.78° C | 60% | 1010.7 hPa | 0 mm | - | - | - |
| 1777749030 | 18.33° C | 60% | 1010.8 hPa | 0 mm | - | - | - |
| 1777748150 | 19.44° C | 57% | 1010.7 hPa | 0 mm | - | - | - |
| 1777747384 | 20.56° C | 54% | 1010.8 hPa | 0 mm | - | - | - |
| 1777746660 | 21.11° C | 51% | 1010.7 hPa | 0 mm | - | - | - |
* Rain since midnight (hover to see other rain measurements)
** Current wind speed in m/s (hover to see current wind gust speed)